EW0797 Weather Reports


time (UTC)temp
C
wind
direction
speed
KPH
gust
KPH
rain 1hr
cm
rain 24hr
cm
rain mn
cm
humidity
%
barometer
mb
20260906102004 23 6 3.2 8.0 0.00 0.13 0.00 84 1012.8
20260906101504 23 5 3.2 6.4 0.00 0.13 0.00 84 1012.8
20260906101004 23 2 3.2 6.4 0.00 0.13 0.00 83 1012.7
20260906100504 23 3 3.2 6.4 0.00 0.13 0.00 83 1012.7
20260906100004 23 9 3.2 8.0 0.00 0.13 0.00 83 1012.6
20260906095504 23 11 3.2 8.0 0.00 0.13 0.00 83 1012.6
20260906095004 23 14 3.2 6.4 0.00 0.13 0.00 83 1012.5
20260906094504 23 20 1.6 6.4 0.00 0.13 0.00 83 1012.5
20260906094004 23 18 1.6 6.4 0.00 0.13 0.00 83 1012.4
20260906093504 23 20 1.6 6.4 0.00 0.13 0.00 83 1012.4
20260906093005 23 15 1.6 4.8 0.00 0.13 0.00 83 1012.4
20260906092504 23 14 1.6 4.8 0.00 0.13 0.00 82 1012.3
20260906092005 23 0 0.0 3.2 0.00 0.13 0.00 82 1012.3
20260906091504 23 0 0.0 1.6 0.00 0.13 0.00 82 1012.2
20260906091004 23 0 0.0 1.6 0.00 0.13 0.00 82 1012.2
20260906090506 23 0 0.0 0.0 0.00 0.13 0.00 82 1012.3
20260906085504 24 0 0.0 3.2 0.00 0.13 0.00 82 1012.2
20260906085005 24 0 0.0 3.2 0.00 0.13 0.00 82 1012.2
20260906084005 24 9 1.6 6.4 0.00 0.13 0.00 82 1012.2
20260906083504 24 0 0.0 6.4 0.00 0.13 0.00 82 1012.2
20260906083004 24 0 0.0 3.2 0.00 0.13 0.00 81 1012.2
20260906082504 24 0 0.0 3.2 0.00 0.13 0.00 81 1012.3
20260906082004 24 10 1.6 4.8 0.00 0.13 0.00 81 1012.2
20260906081504 24 10 1.6 4.8 0.00 0.13 0.00 81 1012.2
20260906081005 24 36 1.6 4.8 0.00 0.13 0.00 81 1012.2
20260906080505 24 44 1.6 4.8 0.00 0.13 0.00 81 1012.2
20260906080006 24 53 1.6 4.8 0.00 0.13 0.00 81 1012.2
20260906074504 24 0 0.0 4.8 0.00 0.13 0.00 80 1012.1
20260906074004 25 54 1.6 4.8 0.00 0.13 0.00 80 1012.1
20260906073504 25 50 1.6 4.8 0.00 0.13 0.00 80 1012.1
20260906073004 25 0 0.0 4.8 0.00 0.13 0.00 80 1012.2
20260906072504 25 0 0.0 0.0 0.00 0.13 0.00 79 1012.1
20260906072004 25 0 0.0 1.6 0.00 0.13 0.00 79 1012.1
20260906071504 25 0 0.0 3.2 0.00 0.13 0.00 79 1012.2
20260906071004 25 0 0.0 3.2 0.00 0.13 0.00 79 1012.3
20260906070004 25 0 0.0 0.0 0.00 0.13 0.00 78 1012.4
20260906065504 25 0 0.0 0.0 0.00 0.13 0.00 78 1012.3
20260906065004 25 0 0.0 0.0 0.00 0.13 0.00 77 1012.3
20260906064504 25 0 0.0 0.0 0.00 0.13 0.00 77 1012.3
20260906064004 25 0 0.0 0.0 0.00 0.13 0.00 77 1012.3
20260906063504 25 0 0.0 0.0 0.00 0.13 0.00 77 1012.3
20260906063004 25 0 0.0 0.0 0.00 0.13 0.00 77 1012.3
20260906062004 25 0 0.0 0.0 0.00 0.13 0.00 77 1012.4
20260906061504 26 0 0.0 3.2 0.00 0.13 0.00 76 1012.5
20260906060504 26 0 0.0 1.6 0.00 0.13 0.00 76 1012.5
20260906060004 26 0 0.0 4.8 0.00 0.13 0.00 76 1012.4
20260906055504 26 0 0.0 4.8 0.00 0.13 0.00 76 1012.3
20260906055004 26 0 0.0 0.0 0.00 0.13 0.00 75 1012.4
20260906054504 26 0 0.0 3.2 0.00 0.13 0.00 75 1012.3
20260906054004 26 47 1.6 3.2 0.00 0.13 0.00 75 1012.4
20260906053504 26 47 1.6 3.2 0.00 0.13 0.00 75 1012.4
20260906053004 26 47 1.6 4.8 0.00 0.13 0.00 74 1012.3
20260906052504 26 49 1.6 6.4 0.00 0.13 0.00 74 1012.3
20260906051504 26 55 1.6 6.4 0.00 0.13 0.00 74 1012.2
20260906050504 26 0 0.0 4.8 0.00 0.13 0.00 73 1012.2
20260906050006 26 0 0.0 0.0 0.00 0.13 0.00 73 1012.1
20260906045504 26 0 0.0 3.2 0.00 0.13 0.00 73 1012.1
20260906045004 26 0 0.0 3.2 0.00 0.13 0.00 73 1012.1
20260906044504 27 0 0.0 3.2 0.00 0.13 0.00 73 1012.0
20260906043504 27 67 1.6 6.4 0.00 0.13 0.00 72 1012.1
20260906043005 27 69 1.6 6.4 0.00 0.13 0.00 72 1012.1
20260906042504 27 69 1.6 4.8 0.00 0.13 0.00 72 1011.9
20260906042004 27 70 1.6 6.4 0.00 0.13 0.00 71 1012.0
20260906041504 27 72 1.6 6.4 0.00 0.13 0.00 72 1012.0
20260906041004 27 76 1.6 4.8 0.00 0.13 0.00 72 1012.0
20260906040504 27 75 1.6 4.8 0.00 0.13 0.00 72 1011.9
20260906040008 26 73 3.2 9.7 0.00 0.13 0.00 72 1012.0
20260906035504 27 68 4.8 14.5 0.00 0.13 0.13 72 1012.0
20260906034505 27 73 1.6 6.4 0.00 0.13 0.13 71 1011.9
20260906034004 27 0 0.0 0.0 0.00 0.13 0.13 70 1011.8
20260906033504 27 0 0.0 0.0 0.00 0.13 0.13 69 1011.7
20260906032504 27 0 0.0 0.0 0.00 0.13 0.13 68 1011.5
20260906031504 27 0 0.0 0.0 0.00 0.13 0.13 68 1011.6
20260906031004 27 0 0.0 0.0 0.00 0.13 0.13 68 1011.6
20260906030504 27 0 0.0 0.0 0.00 0.13 0.13 67 1011.6
20260906030004 27 0 0.0 0.0 0.00 0.13 0.13 66 1011.7
20260906025004 27 0 0.0 0.0 0.00 0.13 0.13 66 1011.7
20260906024504 27 0 0.0 0.0 0.00 0.13 0.13 65 1011.7
20260906024004 28 0 0.0 0.0 0.00 0.13 0.13 65 1011.8
20260906023504 28 0 0.0 0.0 0.00 0.13 0.13 65 1011.7
20260906023004 28 0 0.0 0.0 0.00 0.13 0.13 65 1011.8
20260906022504 28 0 0.0 0.0 0.00 0.13 0.13 64 1011.8
20260906022005 28 0 0.0 0.0 0.00 0.13 0.13 62 1011.7
20260906021503 28 0 0.0 0.0 0.00 0.13 0.13 62 1011.6
20260906021004 28 0 0.0 0.0 0.00 0.13 0.13 61 1011.5
20260906020504 28 0 0.0 0.0 0.00 0.13 0.13 61 1011.4
20260906020004 28 0 0.0 0.0 0.00 0.13 0.13 61 1011.3
20260906015504 28 0 0.0 0.0 0.00 0.13 0.13 62 1011.4
20260906014504 29 0 0.0 0.0 0.00 0.13 0.13 60 1011.3
20260906013504 29 0 0.0 0.0 0.00 0.13 0.13 59 1011.1
20260906013004 29 0 0.0 0.0 0.00 0.13 0.13 59 1010.9
20260906012504 30 0 0.0 3.2 0.00 0.13 0.13 58 1010.8
20260906012004 30 0 0.0 3.2 0.00 0.13 0.13 58 1010.8
20260906011504 30 80 1.6 8.0 0.00 0.13 0.13 58 1010.8
20260906011004 30 112 1.6 8.0 0.00 0.13 0.13 58 1010.6
20260906010504 30 0 0.0 4.8 0.00 0.13 0.13 58 1010.5
20260906010005 30 0 0.0 3.2 0.00 0.13 0.13 56 1010.7
20260906005504 30 0 0.0 3.2 0.00 0.13 0.13 55 1010.7
20260906005004 30 0 0.0 3.2 0.00 0.13 0.13 55 1010.7
20260906004504 30 164 1.6 4.8 0.00 0.13 0.13 55 1010.7
20260906004004 30 144 3.2 6.4 0.00 0.13 0.13 55 1010.6
20260906003504 31 137 3.2 11.3 0.00 0.13 0.13 55 1010.7
20260906003004 31 142 1.6 11.3 0.00 0.13 0.13 55 1010.8
20260906002504 31 0 0.0 4.8 0.00 0.13 0.13 56 1010.8
20260906002004 31 136 1.6 8.0 0.00 0.13 0.13 55 1011.0
20260906001504 31 136 1.6 8.0 0.00 0.13 0.13 54 1011.1
20260906001004 32 130 3.2 11.3 0.00 0.13 0.13 54 1010.9
20260906000504 32 131 4.8 11.3 0.00 0.13 0.13 54 1011.0
20260905235504 32 129 4.8 11.3 0.00 0.13 0.13 53 1011.2
20260905234504 33 96 3.2 11.3 0.00 0.13 0.13 53 1011.3
20260905234004 33 79 3.2 8.0 0.00 0.13 0.13 52 1011.2
20260905233504 33 82 1.6 8.0 0.00 0.13 0.13 52 1011.2
20260905233004 34 72 1.6 8.0 0.00 0.13 0.13 51 1011.1
20260905232504 34 59 1.6 8.0 0.00 0.13 0.13 51 1011.1
20260905232004 34 46 1.6 6.4 0.00 0.13 0.13 51 1011.1
20260905231504 34 21 3.2 9.7 0.00 0.13 0.13 50 1011.2
20260905231004 35 1 3.2 12.9 0.00 0.13 0.13 50 1011.0
20260905230504 35 356 3.2 12.9 0.00 0.13 0.13 48 1010.9
20260905225504 35 341 1.6 9.7 0.00 0.13 0.13 47 1010.7
20260905225004 35 320 1.6 8.0 0.00 0.13 0.13 47 1010.7
20260905224504 35 350 3.2 8.0 0.00 0.13 0.13 47 1010.7
20260905224004 35 357 3.2 8.0 0.00 0.13 0.13 47 1010.7
20260905223504 35 331 4.8 9.7 0.00 0.13 0.13 47 1010.5
20260905223004 35 307 4.8 9.7 0.00 0.13 0.13 47 1010.3
20260905222504 35 300 4.8 9.7 0.00 0.13 0.13 46 1010.5
20260905222004 35 296 4.8 11.3 0.00 0.13 0.13 47 1010.6
20260905221504 35 295 3.2 11.3 0.00 0.13 0.13 48 1010.5
20260905221004 35 291 3.2 9.7 0.00 0.13 0.13 51 1010.5
20260905220504 35 291 1.6 11.3 0.00 0.13 0.13 50 1010.5
20260905220004 35 298 1.6 11.3 0.00 0.13 0.13 50 1010.6
20260905215504 35 299 1.6 6.4 0.00 0.13 0.13 49 1010.7
20260905214504 35 8 3.2 8.0 0.00 0.13 0.13 49 1010.7
20260905214005 35 340 3.2 8.0 0.00 0.13 0.13 49 1010.8
20260905213504 35 318 1.6 8.0 0.00 0.13 0.13 49 1010.8
20260905213005 35 336 1.6 6.4 0.00 0.13 0.13 48 1010.8
20260905212504 36 341 3.2 8.0 0.00 0.13 0.13 48 1010.8
20260905212003 36 314 3.2 9.7 0.00 0.13 0.13 48 1010.8
20260905211004 36 303 1.6 4.8 0.00 0.13 0.13 46 1010.7
20260905210504 36 303 4.8 12.9 0.00 0.13 0.13 46 1010.9
20260905210007 36 313 4.8 12.9 0.00 0.13 0.13 45 1010.9
20260905205504 36 350 3.2 11.3 0.00 0.13 0.13 46 1010.9
20260905205004 36 340 3.2 11.3 0.00 0.13 0.13 45 1011.0
20260905204504 37 257 4.8 9.7 0.00 0.13 0.13 45 1011.2
20260905204005 37 255 4.8 11.3 0.00 0.13 0.13 45 1011.2
20260905203004 37 274 3.2 11.3 0.00 0.13 0.13 44 1011.2
20260905202004 36 307 4.8 12.9 0.00 0.13 0.13 45 1011.4
20260905201504 36 297 6.4 12.9 0.00 0.13 0.13 45 1011.5
20260905201005 36 316 4.8 12.9 0.00 0.13 0.13 45 1011.6
20260905200505 36 322 3.2 9.7 0.00 0.13 0.13 45 1011.6
20260905200004 36 251 3.2 11.3 0.00 0.13 0.13 46 1011.7
20260905195504 36 231 4.8 11.3 0.00 0.13 0.13 46 1011.7
20260905195004 36 228 4.8 9.7 0.00 0.13 0.13 46 1011.8
20260905194504 36 245 3.2 9.7 0.00 0.13 0.13 46 1011.9
20260905194004 36 325 1.6 6.4 0.00 0.13 0.13 46 1011.9
20260905193504 36 275 4.8 11.3 0.00 0.13 0.13 45 1012.0
20260905193004 36 251 4.8 11.3 0.00 0.13 0.13 46 1012.1
20260905192504 36 254 4.8 11.3 0.00 0.13 0.13 47 1012.2
20260905191504 35 204 4.8 9.7 0.00 0.13 0.13 48 1012.3
20260905190504 35 276 1.6 11.3 0.00 0.13 0.13 48 1012.5
20260905190004 35 255 3.2 6.4 0.00 0.13 0.13 47 1012.5
20260905185504 35 187 4.8 11.3 0.00 0.13 0.13 48 1012.5
20260905185004 35 211 4.8 11.3 0.00 0.13 0.13 45 1012.6
20260905184504 35 303 3.2 9.7 0.00 0.13 0.13 47 1012.6
20260905183504 35 236 3.2 8.0 0.00 0.13 0.13 47 1012.8
20260905183004 35 240 3.2 9.7 0.00 0.13 0.13 47 1012.9
20260905182504 35 149 3.2 9.7 0.00 0.13 0.13 46 1013.0
20260905182004 35 89 3.2 8.0 0.00 0.13 0.13 49 1013.1
20260905181504 35 111 3.2 8.0 0.00 0.13 0.13 49 1013.1
20260905181004 34 112 3.2 8.0 0.00 0.13 0.13 48 1013.1
20260905180504 34 128 3.2 11.3 0.00 0.13 0.13 50 1013.2
20260905180004 34 149 3.2 11.3 0.00 0.13 0.13 49 1013.4
20260905175504 34 175 3.2 8.0 0.00 0.13 0.13 49 1013.3
20260905175004 34 196 4.8 11.3 0.00 0.13 0.13 49 1013.3
20260905174504 33 199 4.8 12.9 0.00 0.13 0.13 49 1013.4
20260905173505 33 194 3.2 9.7 0.00 0.13 0.13 51 1013.3
20260905172004 33 115 4.8 12.9 0.00 0.13 0.13 51 1013.5
20260905171504 33 126 3.2 12.9 0.00 0.13 0.13 51 1013.6
20260905171004 33 143 3.2 11.3 0.00 0.13 0.13 53 1013.5
20260905170503 32 122 4.8 12.9 0.00 0.13 0.13 53 1013.6
20260905170004 32 114 6.4 12.9 0.00 0.13 0.13 52 1013.8
20260905165504 32 127 6.4 16.1 0.00 0.13 0.13 53 1013.9
20260905165004 32 138 4.8 16.1 0.00 0.13 0.13 53 1014.1
20260905164504 32 141 4.8 14.5 0.00 0.13 0.13 55 1014.3
20260905164005 32 124 6.4 14.5 0.00 0.13 0.13 54 1014.4
20260905163504 32 115 4.8 14.5 0.00 0.13 0.13 56 1014.3
20260905163004 32 124 4.8 11.3 0.00 0.13 0.13 55 1014.3
20260905162504 32 130 4.8 14.5 0.00 0.13 0.13 55 1014.4
20260905161504 31 142 3.2 9.7 0.00 0.13 0.13 57 1014.3
20260905161005 31 126 4.8 11.3 0.00 0.13 0.13 58 1014.3
20260905160504 31 121 4.8 12.9 0.00 0.13 0.13 56 1014.3
20260905155505 31 140 4.8 14.5 0.00 0.13 0.13 59 1014.3
20260905155004 30 132 4.8 12.9 0.00 0.13 0.13 61 1014.4
20260905154504 30 128 4.8 12.9 0.00 0.13 0.13 60 1014.4
20260905154004 30 105 3.2 12.9 0.00 0.13 0.13 61 1014.6
20260905153504 30 112 4.8 14.5 0.00 0.13 0.13 61 1014.6
20260905153004 30 130 6.4 14.5 0.00 0.13 0.13 62 1014.6
20260905152504 29 134 4.8 14.5 0.00 0.13 0.13 62 1014.5
20260905152004 29 132 4.8 12.9 0.00 0.13 0.13 65 1014.6
20260905151504 28 126 6.4 19.3 0.00 0.13 0.13 64 1014.5
20260905151004 28 124 8.0 19.3 0.00 0.13 0.13 64 1014.5
20260905150504 28 120 8.0 14.5 0.00 0.13 0.13 66 1014.5
20260905145504 28 95 4.8 14.5 0.00 0.13 0.13 68 1014.8
20260905145004 27 88 4.8 12.9 0.00 0.13 0.13 68 1014.8
20260905144504 27 104 6.4 14.5 0.00 0.13 0.13 70 1014.8
20260905144004 27 106 4.8 14.5 0.00 0.13 0.13 72 1014.8
20260905143004 26 90 3.2 12.9 0.03 0.13 0.13 74 1014.9
20260905142504 26 80 3.2 12.9 0.03 0.13 0.13 75 1014.9
20260905142004 25 80 3.2 9.7 0.03 0.13 0.13 76 1014.9
20260905141004 25 62 3.2 12.9 0.03 0.13 0.13 78 1015.0
20260905140503 25 68 3.2 16.1 0.03 0.13 0.13 79 1015.1
20260905140004 25 67 4.8 16.1 0.03 0.13 0.13 79 1015.1
20260905135506 25 67 4.8 12.9 0.03 0.13 0.13 79 1015.1
20260905135004 25 71 4.8 12.9 0.03 0.13 0.13 79 1015.3
20260905134004 25 72 4.8 14.5 0.03 0.13 0.13 80 1015.4
20260905133503 25 59 6.4 16.1 0.05 0.10 0.10 80 1015.3
20260905133004 25 44 4.8 16.1 0.10 0.10 0.10 81 1015.5
20260905132504 25 49 3.2 14.5 0.10 0.10 0.10 82 1015.7
20260905131503 24 58 4.8 16.1 0.10 0.10 0.10 83 1015.7
20260905131004 24 53 4.8 16.1 0.10 0.10 0.10 83 1015.6
20260905130503 24 54 4.8 22.5 0.10 0.10 0.10 83 1015.4
20260905130004 24 56 4.8 22.5 0.10 0.10 0.10 82 1015.2
20260905125504 25 51 3.2 11.3 0.10 0.10 0.10 82 1015.5
20260905125004 25 58 3.2 12.9 0.10 0.10 0.10 82 1015.5
20260905124503 25 65 3.2 14.5 0.10 0.10 0.10 81 1015.5
20260905124005 25 57 3.2 14.5 0.10 0.10 0.10 80 1015.3
20260905123503 25 52 3.2 8.0 0.03 0.03 0.03 79 1015.2
20260905122505 25 130 3.2 8.0 0.00 0.00 0.00 79 1014.6
20260905122004 25 130 1.6 8.0 0.00 0.00 0.00 79 1014.5
20260905121503 25 132 1.6 8.0 0.00 0.00 0.00 79 1014.7
20260905121004 25 127 3.2 8.0 0.00 0.00 0.00 79 1014.5
20260905120503 25 119 3.2 6.4 0.00 0.00 0.00 79 1014.3
20260905120004 25 98 1.6 6.4 0.00 0.00 0.00 79 1014.3
20260905115004 25 64 4.8 17.7 0.00 0.00 0.00 78 1014.4
20260905114503 25 63 4.8 16.1 0.00 0.00 0.00 79 1014.4
20260905113504 25 0 0.0 4.8 0.00 0.00 0.00 79 1014.2
20260905113003 25 0 0.0 3.2 0.00 0.00 0.00 79 1014.0
20260905112504 25 66 1.6 8.0 0.00 0.00 0.00 80 1013.9
20260905112003 25 67 3.2 8.0 0.00 0.00 0.00 80 1013.8
20260905111504 25 65 1.6 8.0 0.00 0.00 0.00 80 1014.0
20260905111004 26 64 1.6 6.4 0.00 0.00 0.00 80 1014.0
20260905110503 26 72 3.2 11.3 0.00 0.00 0.00 80 1013.9
20260905110003 26 71 3.2 11.3 0.00 0.00 0.00 80 1013.7
20260905105504 26 53 3.2 11.3 0.00 0.00 0.00 81 1013.8
20260905105004 26 28 4.8 11.3 0.00 0.00 0.00 80 1013.7
20260905104503 26 17 3.2 9.7 0.00 0.00 0.00 80 1013.7
20260905104004 26 13 1.6 8.0 0.00 0.00 0.00 79 1013.3
20260905103004 26 0 0.0 0.0 0.00 0.00 0.00 79 1012.8
20260905102504 26 0 0.0 0.0 0.00 0.00 0.00 78 1012.8